sat.trackr.live / text

‹ back to catalog

STARLINK-31572

NORAD 59333 · 2024-057P

PAYLOAD ACTIVE UNKNOWN

§ Identity

Operator
Country
US
Launch date
2024-03-25
Launch site
AFETR
Launch vehicle
Mass (kg)
RCS (m²)

Purposes: comms

External: N2YO · Heavens-Above · Gunter

§ Orbital elements

Epoch: 2026-09-20T01:18:30.320640Z

Period
94.27 min
Inclination
43.0016°
Eccentricity
0.0001110
Mean motion
15.27575968 rev/d
Perigee alt
482.3 km
Apogee alt
483.8 km
Semi-major
6,861.2 km
B*
1.1863e-5
RAAN
180.7333°
Arg perigee
266.4377°
Mean anomaly
93.6347°
Rev number
13,943

§ Raw data

STARLINK-315721 59333U 24057P   26263.05451760  .00000064  00000+0  11863-4 0  99902 59333  43.0016 180.7333 0001110 266.4377  93.6347 15.27575968139439

JSON: /api/v1/satellites/59333 · /tle

For live sub-satellite position, see the globe view (requires WebGL).

§ Visibility from observer

Set your observer location to see the next 7 days of passes ≥ 10°. The values pass through the URL so the page stays shareable.

No JS? Fill the form by hand. The geolocation button needs JavaScript.